[[{"header":{"parameterUnit":"m.s-1","parameterCategory":1,"la1":30.2991,"la2":30.254,"lo1":-89.0895,"lo2":-89.0444,"dy":0.0017,"dx":0.0017,"nx":28,"ny":28,"refTime":"2024-02-04T09:00:00:Z","depth":0,"parameterNumber":2,"parameterNumberName":"U-component_of_WINDS"},"data":[0,0,0,0,0,0,0,0,0,0,0,0,0,0,0,0,0,0,0,0,0,0,0,0,0,0,0,0,0,0,0,0,0,0,0,0,0,0,0,0,0,0,0,0,0,0,0,0,0,0,0,0,0,0,0,0,0,0,-0.7599,-0.76,0,-0.7677,-0.7678,-0.7678,-0.7686,-0.7685,-0.7684,-0.7683,-0.7766,-0.7769,-0.7772,0,0,0,0,0,0,0,0,0,0,0,0,0,-0.7459,-0.7462,-0.7599,-0.76,-0.7601,-0.7677,-0.7678,-0.7679,-0.7686,-0.7685,-0.7684,-0.7683,-0.7765,-0.7769,-0.7772,0,0,0,0,0,0,0,0,0,0,0,0,0,-0.7527,-0.7463,-0.7599,-0.7613,-0.7616,-0.7676,-0.7678,-0.7679,-0.7686,-0.7685,-0.7684,-0.7683,-0.7764,-0.7768,-0.7773,-0.7825,0,0,-0.7786,-0.7788,0,0,0,0,0,0,0,0,-0.7523,-0.7532,-0.761,-0.7613,-0.7615,-0.767,-0.7659,-0.7728,-0.7686,-0.7659,-0.7683,-0.7682,-0.7735,-0.7742,-0.776,-0.7829,-0.7832,-0.7787,-0.7789,-0.7791,-0.7793,0,0,0,0,0,0,0,-0.7518,-0.7529,-0.763,-0.7611,-0.7614,-0.7617,-0.7625,-0.7672,-0.7704,-0.7662,-0.7662,-0.7671,-0.7736,-0.7755,-0.7762,-0.7834,-0.7787,-0.7791,-0.7793,-0.7795,-0.795,-0.7952,0,0,0,0,0,0,-0.751,-0.7525,-0.7627,-0.7632,-0.7565,-0.7621,-0.763,-0.7654,-0.7703,-0.7709,-0.7672,-0.7671,-0.7748,-0.7756,-0.7764,-0.783,-0.7791,-0.7795,-0.7798,-0.7949,-0.7951,-0.7952,0,0,0,0,0,0,-0.7507,-0.752,-0.7624,-0.7579,-0.7592,-0.7624,-0.7651,-0.7656,-0.7675,-0.7711,-0.7717,-0.7686,-0.7748,-0.7758,-0.781,-0.7833,-0.7797,-0.7801,-0.7947,-0.795,-0.7952,-0.796,0,0,0,0,0,0,-0.7503,-0.7518,-0.7538,-0.7579,-0.7594,-0.7668,-0.7653,-0.7658,-0.7682,-0.7682,-0.7725,-0.7731,-0.7747,-0.7803,-0.7814,-0.7838,-0.7805,-0.7945,-0.7948,-0.7951,-0.7958,-0.7963,-0.7966,0,0,0,0,0,-0.7498,-0.7538,-0.7539,-0.7551,-0.762,-0.7669,-0.7678,-0.7695,-0.7684,-0.7704,-0.7728,-0.773,-0.7828,-0.7808,-0.7821,-0.7847,-0.7944,-0.7947,-0.7951,-0.7956,-0.7962,-0.7966,0,0,0,0,0,0,-0.75,-0.7544,-0.7545,-0.7599,-0.763,-0.767,-0.7696,-0.77,-0.7736,-0.7734,-0.7754,-0.7764,-0.7815,-0.7836,-0.7813,-0.79,-0.7885,-0.7891,-0.7885,-0.789,-0.7894,-0.7889,-0.7809,0,0,0,0,0,-0.7506,-0.7542,-0.7578,-0.7622,-0.7637,-0.7664,-0.7686,-0.7697,-0.773,-0.7743,-0.777,-0.7804,-0.7842,-0.7867,-0.7904,-0.796,-0.7971,-0.7984,-0.7988,-0.7991,-0.7997,-0.8029,-0.8036,-0.7963,-0.7963,-0.7963,0,0,-0.7521,-0.7549,-0.757,-0.7623,-0.7648,-0.7686,-0.7675,-0.7715,-0.7743,-0.775,-0.78,-0.7821,-0.7859,-0.7914,-0.7939,-0.7933,-0.8019,-0.7996,-0.7998,-0.8002,-0.8033,-0.804,-0.8046,-0.7965,-0.7965,-0.7965,0,0,-0.7566,-0.759,-0.7629,-0.7655,-0.7693,-0.771,-0.7719,-0.7759,-0.7772,-0.7823,-0.7829,-0.7863,-0.7928,-0.7956,-0.7978,-0.8033,-0.8036,-0.8044,-0.8066,-0.8097,-0.8103,-0.8108,-0.8129,-0.8136,-0.8049,-0.8049,-0.8049,0,-0.7579,-0.7634,-0.765,-0.7689,-0.7713,-0.7719,-0.776,-0.7784,-0.7833,-0.7849,-0.7841,-0.7923,-0.7949,-0.8011,-0.8024,-0.8041,-0.8054,-0.804,-0.8101,-0.8106,-0.8111,-0.8131,-0.8139,-0.805,-0.805,-0.805,-0.805,0,-0.7649,-0.7687,-0.7715,-0.7761,-0.7787,-0.7828,-0.785,-0.7875,-0.7883,-0.7901,-0.7953,-0.7984,-0.8028,-0.8043,-0.8052,-0.8106,-0.8101,-0.8096,-0.8082,-0.8119,-0.8138,-0.8146,-0.8051,-0.8051,-0.805,-0.805,0,0,-0.7699,-0.7752,-0.7762,-0.7783,-0.7825,-0.7856,-0.7896,-0.7938,-0.796,-0.7993,-0.8028,-0.8083,-0.8079,-0.8104,-0.8115,-0.8142,-0.8185,-0.8135,-0.8136,-0.8144,-0.8248,-0.8253,-0.8261,-0.8187,-0.8188,-0.8189,-0.8246,0,-0.775,-0.7822,-0.7837,-0.7899,-0.7935,-0.7941,-0.7977,-0.8007,-0.8025,-0.8059,-0.8079,-0.8118,-0.8109,-0.8124,-0.8151,-0.8174,-0.8207,-0.817,-0.8222,-0.8223,-0.8214,-0.8271,-0.8276,-0.8328,-0.8253,-0.8254,-0.8255,0,-0.782,-0.7853,-0.7919,-0.7956,-0.7972,-0.8004,-0.8044,-0.8075,-0.811,-0.8121,-0.8149,-0.8157,-0.82,-0.8182,-0.8243,-0.8218,-0.8239,-0.8254,-0.8256,-0.8263,-0.8243,-0.8282,-0.8345,-0.8353,-0.8267,-0.8266,-0.8265,0,-0.7851,-0.7913,-0.7961,-0.7978,-0.8022,-0.8045,-0.8064,-0.8097,-0.8121,-0.8156,-0.8173,-0.8212,-0.8234,-0.8265,-0.8284,-0.8269,-0.8344,-0.8327,-0.8356,-0.8356,-0.8373,-0.8372,-0.8442,-0.8384,-0.8384,-0.8384,-0.8383,0,-0.7908,-0.7948,-0.7976,-0.8005,-0.8051,-0.8067,-0.8112,-0.8132,-0.8161,-0.8195,-0.8202,-0.8234,-0.8256,-0.8292,-0.8307,-0.8355,-0.8365,-0.8376,-0.838,-0.8377,-0.8376,-0.8393,-0.839,-0.8386,-0.8385,-0.8385,-0.8385,0,-0.7952,-0.7972,-0.8024,-0.8061,-0.8071,-0.8103,-0.8136,-0.8165,-0.8182,-0.8225,-0.8236,-0.8264,-0.8306,-0.8328,-0.838,-0.839,-0.8446,-0.8446,-0.8434,-0.8436,-0.8464,-0.8462,-0.8549,-0.8562,-0.8493,-0.8494,-0.8495,0,-0.7988,-0.8019,-0.8059,-0.8082,-0.8101,-0.8138,-0.8163,-0.818,-0.8206,-0.8247,-0.8271,-0.8313,-0.8348,-0.8415,-0.8441,-0.8481,-0.8484,-0.8512,-0.849,-0.8486,-0.8486,-0.8485,-0.8489,-0.8516,-0.8517,-0.8517,-0.8518,0,-0.8049,-0.8057,-0.8092,-0.813,-0.8159,-0.819,-0.8221,-0.824,-0.8262,-0.829,-0.8333,-0.836,-0.8413,-0.8455,-0.8497,-0.8518,-0.8522,-0.8524,-0.8533,-0.8531,-0.8523,-0.8529,-0.8446,-0.8522,-0.8522,-0.8522,-0.8521,-0.8521,-0.8092,-0.812,-0.8152,-0.8191,-0.8215,-0.8244,-0.8273,-0.8294,-0.8329,-0.8374,-0.8381,-0.8427,-0.846,-0.8517,-0.8539,-0.8576,-0.857,-0.8583,-0.8586,-0.859,-0.8592,-0.8515,-0.8583,-0.8583,-0.8583,-0.8583,-0.8583,0,-0.8155,-0.8176,-0.8211,-0.8254,-0.8284,-0.8283,-0.8317,-0.8343,-0.8383,-0.8413,-0.8447,-0.8496,-0.8537,-0.8565,-0.8606,-0.863,-0.8633,-0.8641,-0.864,-0.8645,-0.8594,-0.8583,-0.8638,-0.8638,-0.8638,-0.8638,-0.8637,-0.8637,-0.8192,-0.824,-0.8251,-0.8312,-0.8333,-0.8377,-0.8396,-0.8423,-0.8447,-0.8501,-0.8535,-0.8552,-0.8582,-0.8626,-0.8664,-0.8671,-0.8687,-0.8695,-0.8702,-0.8654,-0.8649,-0.8643,-0.8633,-0.8697,-0.8697,-0.8751,-0.8751,-0.8751]},{"header":{"parameterUnit":"m.s-1","parameterCategory":1,"la1":30.2991,"la2":30.254,"lo1":-89.0895,"lo2":-89.0444,"dy":0.0017,"dx":0.0017,"nx":28,"ny":28,"refTime":"2024-02-04T09:00:00:Z","depth":0,"parameterNumber":3,"parameterNumberName":"V-component_of_WINDS"},"data":[0,0,0,0,0,0,0,0,0,0,0,0,0,0,0,0,0,0,0,0,0,0,0,0,0,0,0,0,0,0,0,0,0,0,0,0,0,0,0,0,0,0,0,0,0,0,0,0,0,0,0,0,0,0,0,0,0,0,-3.5596,-3.5597,0,-3.5661,-3.5662,-3.5662,-3.564,-3.5638,-3.5637,-3.5635,-3.5697,-3.57,-3.5703,0,0,0,0,0,0,0,0,0,0,0,0,0,-3.5448,-3.5451,-3.5596,-3.5597,-3.5598,-3.5661,-3.5662,-3.5663,-3.564,-3.5638,-3.5636,-3.5635,-3.5696,-3.57,-3.5703,0,0,0,0,0,0,0,0,0,0,0,0,0,-3.5513,-3.5452,-3.5596,-3.5594,-3.5595,-3.5661,-3.5662,-3.5663,-3.564,-3.5638,-3.5636,-3.5634,-3.5695,-3.57,-3.5704,-3.5774,0,0,-3.5718,-3.572,0,0,0,0,0,0,0,0,-3.5509,-3.5518,-3.5593,-3.5594,-3.5595,-3.564,-3.5632,-3.57,-3.5641,-3.5623,-3.5635,-3.5633,-3.568,-3.5685,-3.5702,-3.5777,-3.578,-3.5718,-3.5721,-3.5723,-3.5724,0,0,0,0,0,0,0,-3.5505,-3.5515,-3.5622,-3.5595,-3.5595,-3.5589,-3.5595,-3.5645,-3.5662,-3.5624,-3.5623,-3.5631,-3.568,-3.5698,-3.5703,-3.5781,-3.5718,-3.5722,-3.5725,-3.5726,-3.5918,-3.5921,0,0,0,0,0,0,-3.55,-3.5512,-3.5619,-3.5623,-3.5546,-3.5593,-3.5601,-3.5628,-3.5662,-3.5665,-3.5633,-3.563,-3.5691,-3.5698,-3.5705,-3.5792,-3.5723,-3.5727,-3.5729,-3.5916,-3.5919,-3.5921,0,0,0,0,0,0,-3.5497,-3.551,-3.5617,-3.5567,-3.558,-3.5598,-3.5628,-3.563,-3.5648,-3.5668,-3.5671,-3.5648,-3.569,-3.5699,-3.5758,-3.5793,-3.5729,-3.5733,-3.5913,-3.5917,-3.592,-3.5964,0,0,0,0,0,0,-3.5493,-3.5509,-3.5537,-3.5568,-3.5583,-3.567,-3.5631,-3.5633,-3.5657,-3.5653,-3.5684,-3.5687,-3.5689,-3.5752,-3.5763,-3.5798,-3.5736,-3.591,-3.5915,-3.5919,-3.5959,-3.5968,-3.5976,0,0,0,0,0,-3.5488,-3.5546,-3.5539,-3.5552,-3.5619,-3.5672,-3.568,-3.5683,-3.5659,-3.5687,-3.57,-3.5686,-3.5787,-3.5758,-3.577,-3.5808,-3.5908,-3.5913,-3.5919,-3.5955,-3.5967,-3.5976,0,0,0,0,0,0,-3.5517,-3.555,-3.5542,-3.5612,-3.564,-3.5668,-3.5703,-3.5695,-3.5728,-3.5723,-3.5724,-3.5731,-3.5792,-3.5805,-3.5772,-3.5878,-3.5844,-3.5852,-3.5868,-3.5878,-3.5887,-3.5883,-3.574,0,0,0,0,0,-3.5531,-3.5573,-3.5599,-3.5658,-3.5672,-3.5686,-3.5709,-3.5709,-3.5736,-3.5748,-3.5765,-3.5791,-3.5829,-3.5854,-3.589,-3.596,-3.5967,-3.5992,-3.6001,-3.6008,-3.6015,-3.6054,-3.6066,-3.5939,-3.5939,-3.5939,0,0,-3.5561,-3.5585,-3.5611,-3.5664,-3.5686,-3.5728,-3.5695,-3.5741,-3.5773,-3.5754,-3.5812,-3.5825,-3.5854,-3.592,-3.5949,-3.5933,-3.6051,-3.6015,-3.602,-3.6024,-3.6061,-3.6073,-3.6084,-3.5943,-3.5942,-3.5942,0,0,-3.5639,-3.566,-3.5713,-3.5735,-3.5769,-3.5777,-3.579,-3.582,-3.5829,-3.5887,-3.5874,-3.591,-3.5975,-3.5998,-3.6017,-3.6104,-3.6092,-3.6115,-3.616,-3.6198,-3.6208,-3.6217,-3.6249,-3.6261,-3.6122,-3.6122,-3.6122,0,-3.5672,-3.5737,-3.574,-3.5788,-3.5812,-3.5799,-3.5851,-3.5872,-3.5915,-3.5932,-3.5912,-3.5995,-3.6014,-3.6085,-3.6106,-3.6122,-3.6136,-3.6112,-3.6207,-3.6216,-3.6224,-3.6255,-3.6267,-3.6125,-3.6125,-3.6124,-3.6124,0,-3.5777,-3.5822,-3.586,-3.5905,-3.5932,-3.5982,-3.5992,-3.6019,-3.6017,-3.6027,-3.6086,-3.6108,-3.6149,-3.6165,-3.6162,-3.6236,-3.6225,-3.6206,-3.6172,-3.6239,-3.6268,-3.628,-3.6129,-3.6128,-3.6127,-3.6126,0,0,-3.5875,-3.5921,-3.5935,-3.5955,-3.5991,-3.6026,-3.6075,-3.6117,-3.6141,-3.617,-3.6212,-3.6267,-3.6251,-3.6273,-3.6272,-3.6306,-3.6375,-3.6283,-3.6284,-3.6301,-3.6459,-3.6474,-3.6488,-3.6366,-3.6368,-3.637,-3.6457,0,-3.5956,-3.6045,-3.6049,-3.6129,-3.6172,-3.6159,-3.6202,-3.6228,-3.6239,-3.6275,-3.6286,-3.6326,-3.6301,-3.6314,-3.6347,-3.6359,-3.6406,-3.6353,-3.6405,-3.6406,-3.64,-3.6502,-3.6519,-3.6599,-3.6468,-3.647,-3.6471,0,-3.6064,-3.6099,-3.6185,-3.6216,-3.6234,-3.6273,-3.6312,-3.6347,-3.6376,-3.6381,-3.6407,-3.6401,-3.645,-3.6414,-3.6482,-3.6445,-3.6466,-3.6475,-3.6479,-3.6485,-3.6444,-3.6513,-3.6625,-3.6638,-3.6489,-3.6487,-3.6486,0,-3.6129,-3.6197,-3.6258,-3.6275,-3.6313,-3.6341,-3.6357,-3.6385,-3.641,-3.6443,-3.646,-3.6497,-3.6518,-3.6547,-3.6552,-3.6524,-3.662,-3.6584,-3.6626,-3.6626,-3.6648,-3.6647,-3.6767,-3.6659,-3.6659,-3.6659,-3.6658,0,-3.622,-3.6273,-3.6288,-3.6325,-3.6384,-3.6387,-3.6445,-3.6459,-3.6484,-3.6523,-3.6513,-3.6549,-3.6552,-3.659,-3.6593,-3.665,-3.6658,-3.6664,-3.6665,-3.6666,-3.6666,-3.6681,-3.6676,-3.6662,-3.6661,-3.666,-3.666,0,-3.6303,-3.6315,-3.6381,-3.6412,-3.6421,-3.6463,-3.6489,-3.6524,-3.6533,-3.6583,-3.6595,-3.6609,-3.6653,-3.666,-3.671,-3.6712,-3.6781,-3.6774,-3.6772,-3.6772,-3.6815,-3.6811,-3.695,-3.6969,-3.6847,-3.6848,-3.6849,0,-3.6362,-3.6403,-3.6439,-3.6466,-3.6485,-3.6527,-3.6553,-3.6558,-3.6585,-3.6622,-3.6653,-3.6696,-3.6731,-3.68,-3.6815,-3.6853,-3.6849,-3.6895,-3.6854,-3.6855,-3.6852,-3.685,-3.6855,-3.6903,-3.6904,-3.6905,-3.6906,0,-3.6465,-3.647,-3.6509,-3.6551,-3.6584,-3.6616,-3.6647,-3.6669,-3.6677,-3.6708,-3.6754,-3.6781,-3.6833,-3.6876,-3.6915,-3.693,-3.692,-3.6919,-3.6931,-3.6934,-3.6931,-3.6935,-3.6795,-3.6916,-3.6915,-3.6914,-3.6914,-3.6913,-3.6539,-3.6576,-3.6608,-3.6652,-3.6676,-3.6706,-3.6741,-3.6756,-3.6795,-3.6839,-3.6839,-3.6889,-3.6917,-3.6968,-3.6986,-3.7025,-3.701,-3.7027,-3.7031,-3.7036,-3.7041,-3.6924,-3.7031,-3.7031,-3.7031,-3.703,-3.703,0,-3.6644,-3.6664,-3.6705,-3.675,-3.6785,-3.6773,-3.6807,-3.6837,-3.6882,-3.691,-3.6945,-3.6997,-3.7039,-3.7057,-3.7097,-3.7125,-3.7121,-3.7135,-3.7134,-3.7138,-3.7051,-3.7038,-3.7138,-3.7138,-3.7138,-3.7138,-3.7138,-3.7138,-3.6702,-3.6764,-3.6772,-3.6846,-3.6865,-3.6916,-3.6936,-3.6963,-3.6986,-3.7046,-3.7081,-3.7093,-3.7117,-3.7159,-3.7197,-3.7201,-3.7217,-3.7234,-3.7236,-3.7155,-3.7144,-3.7134,-3.7121,-3.7237,-3.7237,-3.732,-3.732,-3.7321]}]]